Voltar ao catálogo

DELTA 1 DEB

AtivoPO
NORAD 21969·DEBRIS·🇺🇸 United States

Lançado Jun 12, 1975 de Vandenberg Space Force Base

Loading…

Próximas Passagens (próximas 24 horas)

TLE

AtualizadoSource: Space-Track

Época: Sep 14, 2026, 08:23 UTC

1 21969U 75052JV  26257.34988757  .00000584  00000-0  10846-2 0  9997
2 21969  99.0200 218.4789 0110844 152.6706   3.4476 13.40900876711756

Acompanhe DELTA 1 DEB em tempo real com AllMySat

Download on the App Store